GFSFLT1_prec_pwat_000.txt.gz
Precipitable_Water
0.92 0.95 1.03 1.05 1.14 1.20 1.27 1.25 1.20 1.12 1.03 1.04 1.17 1.24 1.19 1.20 1.25 1.20 1.17 1.09 0.98 1.04 1.02 1.00 0.98 1.00 1.02 0.90 0.84 0.85 0.90 0.91 0.93
0.79 0.86 0.92 0.97 1.08 1.14 1.22 1.29 1.33 1.29 1.14 1.12 1.11 1.16 1.19 1.19 1.24 1.24 1.21 1.10 1.07 1.10 1.04 0.99 1.00 1.02 0.99 0.96 0.88 0.88 0.88 0.84 0.79
0.70 0.82 0.87 0.92 1.04 1.12 1.25 1.32 1.39 1.48 1.39 1.16 1.13 1.18 1.17 1.16 1.20 1.23 1.19 1.01 1.04 1.09 1.07 1.01 1.02 1.02 1.04 1.01 0.90 0.87 0.85 0.81 0.74
0.63 0.74 0.78 0.82 0.93 1.03 1.11 1.24 1.32 1.35 1.36 1.33 1.23 1.21 1.23 1.21 1.35 1.27 1.13 1.01 1.01 1.10 1.16 1.15 1.07 1.02 1.01 1.02 0.93 0.91 0.82 0.78 0.83
0.66 0.73 0.74 0.80 0.85 0.96 1.05 1.10 1.18 1.22 1.33 1.40 1.35 1.36 1.33 1.28 1.17 1.38 1.13 1.04 1.10 1.18 1.17 1.15 1.10 1.05 1.03 1.01 1.01 0.97 0.86 0.81 0.84
0.66 0.72 0.71 0.79 0.86 0.92 0.96 0.99 1.08 1.19 1.32 1.36 1.42 1.48 1.45 1.44 1.35 1.34 1.27 1.17 1.17 1.18 1.21 1.04 1.10 1.09 1.03 1.02 0.98 0.91 0.85 0.89 0.94
0.63 0.67 0.69 0.74 0.81 0.86 0.91 0.96 1.04 1.11 1.18 1.35 1.45 1.48 1.47 1.49 1.49 1.47 1.62 1.34 1.32 1.19 1.23 1.07 1.11 1.12 1.07 1.07 1.01 0.95 0.94 0.99 1.03
0.61 0.62 0.66 0.70 0.71 0.78 0.86 0.93 1.00 1.10 1.18 1.28 1.36 1.37 1.34 1.36 1.46 1.66 1.77 1.60 1.55 1.44 1.24 1.21 1.16 1.14 1.11 1.12 1.12 1.08 1.01 1.06 1.12
0.58 0.58 0.58 0.64 0.74 0.76 0.83 0.90 0.93 1.04 1.13 1.18 1.26 1.27 1.22 1.36 1.56 1.65 1.91 1.85 1.62 1.59 1.33 1.28 1.17 1.18 1.15 1.15 1.21 1.16 1.12 1.16 1.22
0.57 0.55 0.60 0.66 0.68 0.70 0.78 0.85 0.94 1.03 1.15 1.33 1.38 1.37 1.44 1.53 1.59 1.63 1.75 1.85 1.53 1.71 1.41 1.29 1.11 1.17 1.19 1.18 1.24 1.19 1.22 1.27 1.30
0.55 0.59 0.67 0.74 0.74 0.82 0.92 0.93 0.92 0.95 0.98 1.07 1.13 1.22 1.42 1.63 1.67 1.62 1.86 1.60 1.48 1.68 1.39 1.19 1.10 1.17 1.21 1.17 1.28 1.25 1.35 1.42 1.40
0.67 0.73 0.80 0.86 0.94 1.01 0.81 0.77 0.82 0.86 0.91 1.01 1.07 1.13 1.25 1.35 1.58 1.58 1.68 1.63 1.41 1.59 1.45 1.20 1.19 1.25 1.27 1.30 1.29 1.37 1.41 1.41 1.38
0.75 0.85 0.93 0.92 0.94 0.93 0.93 0.83 0.87 0.94 1.04 1.10 1.10 1.21 1.31 1.48 1.53 1.53 1.53 1.51 1.55 1.51 1.47 1.35 1.40 1.37 1.42 1.46 1.53 1.54 1.48 1.47 1.31
0.85 0.90 0.94 1.00 1.03 0.99 0.97 1.02 1.05 1.01 1.09 1.13 1.29 1.33 1.48 1.47 1.50 1.51 1.58 1.59 1.63 1.52 1.40 1.38 1.34 1.32 1.27 1.30 1.39 1.45 1.49 1.39 1.17
0.77 0.82 0.90 0.94 0.92 0.99 1.04 1.04 1.10 1.13 1.14 1.38 1.34 1.43 1.51 1.51 1.46 1.50 1.55 1.53 1.53 1.50 1.42 1.35 1.28 1.31 1.21 1.22 1.32 1.48 1.40 1.19 1.02
0.88 0.92 0.95 1.02 1.02 1.04 1.05 1.11 1.20 1.12 1.22 1.31 1.40 1.48 1.46 1.46 1.50 1.47 1.53 1.47 1.46 1.41 1.40 1.29 1.20 1.17 1.08 1.19 1.27 1.24 1.09 1.00 0.99
0.95 0.98 0.97 1.05 1.08 1.10 1.17 1.16 1.23 1.26 1.32 1.37 1.45 1.40 1.43 1.47 1.45 1.41 1.41 1.41 1.40 1.39 1.33 1.26 1.24 1.15 1.12 1.11 1.14 1.09 1.02 0.97 0.92
1.01 1.01 1.03 1.05 1.04 1.03 1.05 1.14 1.20 1.33 1.37 1.44 1.41 1.37 1.35 1.37 1.41 1.41 1.37 1.33 1.31 1.37 1.33 1.23 1.06 1.14 1.09 1.04 0.98 1.02 0.99 0.93 0.87
1.00 0.97 0.94 0.93 0.99 0.99 0.99 1.05 1.14 1.25 1.27 1.26 1.21 1.18 1.12 1.22 1.26 1.24 1.13 1.08 1.10 1.18 1.10 1.10 1.16 1.18 1.15 1.10 1.08 1.04 0.98 0.92 0.83
0.85 0.87 0.92 0.94 0.95 0.94 0.94 0.99 1.05 1.14 1.21 1.23 1.16 1.05 1.05 1.08 1.02 1.03 1.08 1.04 0.93 0.81 0.97 1.09 1.11 1.14 1.09 1.04 0.99 0.95 0.91 0.86 0.83

GFSFLT1_prec_pwat_003.txt.gz
Precipitable_Water
0.93 0.98 1.00 0.98 0.90 0.92 1.02 1.12 1.16 1.12 1.11 1.12 1.19 1.27 1.29 1.32 1.33 1.32 1.27 1.22 1.18 1.13 1.09 1.10 1.16 1.07 1.03 1.11 1.06 0.90 0.90 0.87 0.88
0.78 0.88 0.97 0.99 1.02 1.04 1.07 1.11 1.12 1.11 1.11 1.08 1.13 1.21 1.26 1.29 1.35 1.34 1.27 1.28 1.31 1.28 1.22 1.28 1.24 1.07 1.06 1.10 1.04 0.97 0.94 0.87 0.81
0.67 0.80 0.93 0.98 1.03 1.05 1.16 1.20 1.20 1.25 1.23 1.16 1.13 1.18 1.21 1.23 1.27 1.27 1.30 1.37 1.31 1.28 1.17 1.27 1.26 1.19 1.18 1.08 1.05 1.00 0.95 0.89 0.85
0.58 0.73 0.84 0.90 0.94 1.06 1.12 1.19 1.26 1.24 1.33 1.35 1.27 1.18 1.22 1.26 1.27 1.29 1.30 1.35 1.34 1.22 1.14 1.26 1.20 1.24 1.21 1.16 1.10 1.06 0.95 0.88 0.83
0.62 0.72 0.78 0.89 0.93 1.02 1.07 1.15 1.20 1.22 1.30 1.37 1.42 1.38 1.29 1.32 1.36 1.27 1.26 1.36 1.58 1.17 1.05 1.20 1.16 1.26 1.24 1.18 1.18 1.15 1.05 0.94 0.90
0.61 0.70 0.79 0.84 0.87 0.89 0.96 1.06 1.09 1.14 1.22 1.30 1.44 1.59 1.54 1.41 1.42 1.41 1.31 1.39 1.39 1.20 1.15 1.12 1.21 1.28 1.21 1.16 1.18 1.18 1.15 1.03 0.97
0.55 0.72 0.75 0.77 0.81 0.84 0.86 0.89 0.95 1.04 1.14 1.32 1.47 1.52 1.54 1.58 1.53 1.51 1.48 1.45 1.59 1.26 1.42 1.34 1.27 1.22 1.18 1.19 1.23 1.19 1.13 1.07 1.08
0.53 0.69 0.73 0.72 0.72 0.75 0.85 0.89 0.94 1.06 1.19 1.28 1.34 1.42 1.50 1.56 1.69 1.68 1.66 1.65 1.65 1.59 1.47 1.58 1.53 1.30 1.22 1.21 1.23 1.20 1.18 1.19 1.22
0.53 0.63 0.65 0.69 0.72 0.73 0.79 0.89 0.96 1.07 1.15 1.22 1.33 1.36 1.35 1.48 1.56 1.57 1.62 1.67 1.65 1.67 1.67 1.63 1.57 1.43 1.30 1.23 1.24 1.20 1.25 1.28 1.29
0.57 0.59 0.63 0.63 0.66 0.76 0.86 0.93 1.01 1.02 1.08 1.20 1.27 1.32 1.38 1.44 1.48 1.53 1.63 1.66 1.69 1.65 1.61 1.49 1.47 1.39 1.38 1.35 1.28 1.26 1.27 1.30 1.33
0.60 0.65 0.74 0.73 0.77 0.85 0.93 0.91 1.00 1.07 1.12 1.12 1.15 1.15 1.21 1.32 1.39 1.48 1.58 1.67 1.64 1.60 1.54 1.46 1.46 1.42 1.44 1.37 1.37 1.34 1.34 1.43 1.44
0.61 0.65 0.74 0.82 0.91 0.94 0.85 0.87 0.93 0.96 0.95 0.95 0.98 1.01 1.12 1.25 1.36 1.39 1.46 1.52 1.48 1.48 1.49 1.40 1.51 1.51 1.38 1.34 1.36 1.38 1.36 1.35 1.35
0.65 0.72 0.80 0.87 0.88 0.82 0.82 0.85 0.88 0.85 0.89 0.95 1.04 1.16 1.27 1.39 1.50 1.55 1.56 1.57 1.52 1.56 1.53 1.50 1.63 1.50 1.43 1.40 1.35 1.37 1.33 1.30 1.35
0.78 0.85 0.85 0.88 0.88 0.83 0.88 0.96 0.95 0.91 0.99 1.02 1.20 1.31 1.41 1.49 1.54 1.50 1.49 1.51 1.53 1.52 1.48 1.51 1.52 1.40 1.42 1.36 1.33 1.31 1.33 1.33 1.34
0.78 0.76 0.84 0.94 0.93 0.98 1.02 1.02 0.99 0.97 0.99 1.16 1.30 1.45 1.46 1.50 1.56 1.53 1.49 1.48 1.49 1.55 1.52 1.49 1.49 1.45 1.36 1.30 1.33 1.27 1.27 1.29 1.32
0.90 0.91 0.90 0.99 0.97 1.00 1.08 1.13 1.12 1.01 1.15 1.30 1.39 1.35 1.40 1.45 1.47 1.47 1.45 1.39 1.40 1.39 1.46 1.43 1.35 1.31 1.27 1.28 1.35 1.29 1.27 1.25 1.16
0.91 0.98 0.98 1.07 1.08 1.06 1.07 1.17 1.19 1.19 1.29 1.37 1.36 1.37 1.45 1.43 1.41 1.40 1.40 1.37 1.35 1.34 1.30 1.25 1.28 1.28 1.24 1.17 1.18 1.14 1.18 1.10 1.05
1.02 1.03 1.03 1.05 1.00 1.01 1.08 1.17 1.24 1.30 1.33 1.36 1.28 1.37 1.36 1.31 1.29 1.31 1.27 1.30 1.30 1.21 1.24 1.22 1.21 1.13 1.12 1.07 1.04 1.11 1.14 1.07 1.00
1.06 1.09 1.15 1.11 1.11 1.06 1.03 1.08 1.14 1.27 1.32 1.35 1.31 1.26 1.24 1.18 1.15 1.17 1.18 1.14 1.07 1.12 1.16 1.21 1.21 1.21 1.15 1.06 1.13 1.11 1.05 1.00 0.96
0.95 0.95 0.98 1.02 1.03 1.01 1.03 1.04 1.08 1.18 1.25 1.28 1.25 1.17 1.15 1.13 1.14 1.16 1.09 1.05 1.02 0.99 1.03 1.01 1.01 1.05 1.08 1.10 1.07 1.04 0.97 0.91 0.88

GFSFLT1_prec_pwat_006.txt.gz
Precipitable_Water
0.87 0.97 0.95 0.95 0.98 1.02 0.99 1.03 1.12 1.17 1.13 1.15 1.26 1.31 1.37 1.45 1.42 1.42 1.41 1.45 1.38 1.28 1.28 1.28 1.36 1.39 1.34 1.24 1.25 1.18 1.05 0.96 1.00
0.72 0.85 0.93 0.93 1.01 0.98 0.99 0.99 1.04 1.12 1.17 1.18 1.24 1.29 1.37 1.40 1.44 1.43 1.45 1.50 1.52 1.40 1.37 1.31 1.43 1.40 1.35 1.32 1.39 1.23 1.10 1.01 1.03
0.65 0.78 0.89 0.94 1.00 1.00 0.99 1.00 1.04 1.15 1.18 1.17 1.24 1.25 1.29 1.31 1.35 1.42 1.46 1.48 1.47 1.35 1.45 1.44 1.44 1.37 1.30 1.29 1.38 1.32 1.23 1.13 1.08
0.61 0.69 0.80 0.90 0.99 1.03 1.06 1.03 1.06 1.16 1.18 1.20 1.20 1.23 1.23 1.25 1.33 1.43 1.45 1.45 1.45 1.49 1.55 1.41 1.36 1.36 1.31 1.40 1.25 1.34 1.30 1.19 1.10
0.53 0.63 0.77 0.87 0.99 1.08 1.08 1.07 1.09 1.14 1.18 1.24 1.30 1.30 1.30 1.30 1.39 1.43 1.42 1.44 1.45 1.46 1.44 1.34 1.30 1.35 1.33 1.25 1.31 1.33 1.37 1.27 1.15
0.52 0.59 0.72 0.89 0.97 1.02 1.06 1.09 1.13 1.13 1.24 1.29 1.42 1.50 1.50 1.44 1.40 1.43 1.50 1.48 1.39 1.53 1.46 1.23 1.28 1.40 1.42 1.39 1.38 1.34 1.36 1.36 1.26
0.51 0.63 0.73 0.86 0.94 1.02 1.03 1.07 1.11 1.12 1.21 1.33 1.44 1.51 1.58 1.63 1.65 1.62 1.63 1.62 1.54 1.40 1.36 1.15 1.29 1.28 1.38 1.48 1.38 1.31 1.34 1.39 1.31
0.54 0.59 0.62 0.79 0.92 0.94 0.95 1.00 1.08 1.17 1.27 1.31 1.39 1.46 1.53 1.60 1.75 1.84 1.86 1.79 1.58 1.53 1.36 1.29 1.15 1.25 1.35 1.44 1.43 1.24 1.35 1.33 1.28
0.53 0.58 0.59 0.78 0.97 0.96 0.94 1.00 1.01 1.07 1.13 1.23 1.34 1.41 1.49 1.61 1.69 1.71 1.69 1.68 1.67 1.58 1.47 1.44 1.42 1.33 1.36 1.41 1.36 1.26 1.29 1.28 1.29
0.48 0.58 0.63 0.77 0.92 0.95 1.01 1.03 1.07 1.06 1.13 1.26 1.31 1.36 1.42 1.49 1.54 1.51 1.53 1.59 1.63 1.62 1.62 1.59 1.48 1.45 1.43 1.41 1.40 1.35 1.25 1.24 1.30
0.52 0.64 0.71 0.82 0.87 0.93 0.98 1.04 1.11 1.17 1.18 1.15 1.23 1.27 1.29 1.37 1.39 1.40 1.40 1.42 1.41 1.43 1.48 1.47 1.48 1.47 1.48 1.48 1.46 1.38 1.39 1.40 1.35
0.62 0.72 0.81 0.88 0.93 0.98 0.98 1.02 1.07 1.06 1.07 1.08 1.12 1.14 1.20 1.25 1.29 1.32 1.37 1.36 1.42 1.51 1.54 1.53 1.50 1.53 1.52 1.50 1.52 1.44 1.47 1.46 1.43
0.66 0.77 0.83 0.85 0.92 0.99 0.99 1.00 0.98 0.94 0.94 1.00 1.04 1.11 1.19 1.29 1.33 1.36 1.38 1.45 1.50 1.59 1.61 1.49 1.48 1.54 1.56 1.55 1.47 1.47 1.42 1.40 1.38
0.81 0.83 0.89 0.90 0.95 0.96 0.96 0.98 0.97 0.95 0.98 0.98 1.10 1.20 1.26 1.31 1.35 1.41 1.49 1.50 1.50 1.56 1.55 1.50 1.54 1.54 1.57 1.59 1.50 1.43 1.47 1.36 1.29
0.92 0.88 0.92 0.89 0.85 0.90 1.00 1.05 1.03 0.98 0.99 1.11 1.22 1.28 1.32 1.36 1.44 1.49 1.51 1.49 1.45 1.48 1.51 1.51 1.48 1.45 1.52 1.59 1.60 1.54 1.41 1.30 1.33
0.91 0.88 0.89 0.95 0.96 0.99 1.07 1.12 1.15 1.07 1.14 1.21 1.25 1.26 1.30 1.39 1.48 1.53 1.51 1.43 1.41 1.40 1.48 1.46 1.40 1.39 1.44 1.49 1.52 1.39 1.29 1.32 1.33
0.97 1.02 1.00 1.02 1.01 0.98 1.02 1.11 1.12 1.17 1.19 1.28 1.28 1.27 1.36 1.46 1.44 1.44 1.43 1.44 1.41 1.42 1.42 1.35 1.33 1.40 1.37 1.35 1.36 1.36 1.34 1.30 1.31
1.04 1.04 1.08 1.09 1.05 1.06 1.05 1.11 1.15 1.22 1.27 1.34 1.33 1.36 1.38 1.39 1.36 1.34 1.31 1.31 1.30 1.37 1.35 1.28 1.24 1.23 1.19 1.19 1.23 1.34 1.30 1.25 1.15
1.20 1.15 1.14 1.14 1.14 1.15 1.18 1.22 1.25 1.33 1.37 1.38 1.34 1.27 1.24 1.20 1.17 1.19 1.26 1.21 1.23 1.28 1.24 1.18 1.16 1.18 1.20 1.19 1.21 1.17 1.15 1.12 1.09
1.08 1.08 1.12 1.24 1.23 1.26 1.23 1.23 1.25 1.36 1.41 1.38 1.26 1.17 1.13 1.12 1.13 1.12 1.14 1.17 1.09 0.98 1.04 1.10 1.10 1.08 1.08 1.04 1.08 1.11 1.10 1.05 1.00

GFSFLT1_prec_pwat_009.txt.gz
Precipitable_Water
0.74 1.04 1.01 0.96 1.07 1.14 1.20 1.21 1.26 1.32 1.34 1.30 1.33 1.35 1.34 1.45 1.46 1.39 1.38 1.43 1.48 1.37 1.40 1.42 1.61 1.58 1.51 1.43 1.41 1.43 1.38 1.20 1.10
0.63 0.83 0.97 0.97 0.99 1.06 1.14 1.16 1.16 1.17 1.30 1.28 1.27 1.35 1.40 1.44 1.52 1.44 1.41 1.46 1.49 1.55 1.48 1.47 1.47 1.57 1.44 1.44 1.40 1.45 1.39 1.26 1.29
0.61 0.73 0.92 0.99 0.97 1.04 1.14 1.19 1.17 1.16 1.23 1.25 1.25 1.33 1.41 1.44 1.48 1.54 1.49 1.56 1.50 1.53 1.51 1.43 1.47 1.50 1.45 1.41 1.38 1.47 1.35 1.33 1.34
0.59 0.70 0.88 0.97 0.99 1.04 1.12 1.15 1.16 1.14 1.16 1.23 1.23 1.26 1.34 1.34 1.37 1.46 1.47 1.43 1.46 1.51 1.48 1.52 1.44 1.44 1.40 1.35 1.46 1.51 1.48 1.35 1.31
0.60 0.68 0.82 0.90 1.01 1.04 1.07 1.09 1.13 1.14 1.13 1.18 1.24 1.28 1.30 1.28 1.32 1.39 1.39 1.46 1.51 1.51 1.44 1.48 1.39 1.33 1.30 1.37 1.45 1.52 1.44 1.29 1.35
0.56 0.68 0.82 0.91 0.93 1.03 1.03 1.11 1.11 1.10 1.12 1.11 1.24 1.33 1.37 1.38 1.32 1.35 1.39 1.51 1.52 1.55 1.55 1.51 1.39 1.30 1.25 1.28 1.31 1.41 1.35 1.39 1.33
0.63 0.70 0.74 0.72 0.89 0.95 1.05 1.12 1.14 1.09 1.09 1.12 1.25 1.36 1.39 1.43 1.44 1.41 1.45 1.52 1.58 1.59 1.64 1.56 1.31 1.25 1.22 1.25 1.31 1.29 1.32 1.35 1.34
0.52 0.56 0.72 0.74 0.83 0.89 1.06 1.16 1.19 1.16 1.12 1.16 1.27 1.33 1.40 1.42 1.57 1.61 1.61 1.59 1.65 1.75 1.73 1.64 1.47 1.30 1.27 1.34 1.31 1.36 1.33 1.34 1.36
0.49 0.52 0.62 0.74 0.81 0.90 1.07 1.16 1.21 1.22 1.20 1.24 1.34 1.38 1.37 1.49 1.60 1.65 1.67 1.71 1.80 1.84 1.81 1.78 1.68 1.49 1.38 1.33 1.34 1.36 1.42 1.46 1.32
0.51 0.49 0.51 0.77 0.79 0.87 1.08 1.19 1.24 1.28 1.29 1.30 1.32 1.33 1.41 1.49 1.62 1.59 1.69 1.77 1.77 1.74 1.72 1.77 1.62 1.45 1.35 1.39 1.46 1.48 1.41 1.42 1.30
0.49 0.48 0.48 0.71 0.84 0.99 1.16 1.27 1.23 1.29 1.32 1.29 1.29 1.29 1.35 1.49 1.59 1.67 1.71 1.68 1.61 1.58 1.57 1.55 1.56 1.52 1.43 1.48 1.53 1.49 1.44 1.44 1.37
0.49 0.52 0.62 0.79 0.89 1.08 1.26 1.25 1.24 1.25 1.20 1.26 1.28 1.30 1.37 1.48 1.56 1.55 1.49 1.40 1.44 1.48 1.51 1.53 1.45 1.56 1.50 1.52 1.57 1.57 1.54 1.55 1.42
0.68 0.63 0.64 0.84 0.94 1.12 1.24 1.24 1.29 1.20 1.17 1.22 1.24 1.33 1.36 1.37 1.38 1.37 1.39 1.43 1.47 1.54 1.58 1.57 1.58 1.53 1.57 1.63 1.61 1.65 1.61 1.58 1.45
0.68 0.68 0.80 0.93 1.07 1.14 1.19 1.24 1.25 1.17 1.19 1.15 1.18 1.20 1.26 1.32 1.38 1.38 1.41 1.42 1.51 1.55 1.56 1.59 1.55 1.50 1.54 1.60 1.63 1.62 1.60 1.51 1.46
0.80 0.77 0.82 0.94 1.07 1.14 1.22 1.28 1.26 1.19 1.11 1.15 1.21 1.26 1.31 1.34 1.38 1.42 1.44 1.44 1.49 1.51 1.50 1.51 1.51 1.47 1.52 1.55 1.59 1.60 1.57 1.52 1.45
0.99 1.05 1.02 1.12 1.19 1.12 1.19 1.26 1.25 1.16 1.26 1.32 1.34 1.37 1.37 1.37 1.38 1.44 1.49 1.49 1.48 1.47 1.51 1.41 1.38 1.34 1.38 1.43 1.54 1.66 1.66 1.55 1.46
0.95 1.08 1.12 1.22 1.28 1.21 1.26 1.34 1.30 1.38 1.36 1.41 1.40 1.32 1.30 1.35 1.39 1.43 1.47 1.52 1.47 1.37 1.30 1.29 1.31 1.32 1.29 1.34 1.42 1.43 1.42 1.38 1.41
1.18 1.19 1.22 1.27 1.25 1.16 1.16 1.25 1.29 1.31 1.38 1.43 1.32 1.34 1.38 1.40 1.42 1.40 1.36 1.35 1.34 1.32 1.36 1.32 1.27 1.29 1.29 1.22 1.15 1.16 1.28 1.31 1.35
1.32 1.30 1.28 1.20 1.18 1.18 1.20 1.23 1.24 1.29 1.36 1.39 1.32 1.31 1.35 1.34 1.30 1.32 1.32 1.28 1.21 1.30 1.25 1.26 1.27 1.18 1.14 1.13 1.12 1.18 1.14 1.12 1.15
1.22 1.24 1.19 1.16 1.15 1.18 1.23 1.27 1.29 1.38 1.45 1.47 1.41 1.33 1.34 1.26 1.28 1.26 1.24 1.20 1.17 1.07 1.14 1.07 1.02 1.03 1.03 1.04 1.00 1.04 1.08 1.09 1.08

GFSFLT1_prec_pwat_015.txt.gz
Precipitable_Water
1.12 1.14 1.18 1.08 1.06 1.07 1.12 1.23 1.35 1.41 1.38 1.32 1.39 1.42 1.34 1.28 1.30 1.30 1.32 1.21 1.41 1.38 1.35 1.46 1.57 1.50 1.48 1.37 1.29 1.26 1.36 1.35 1.33
1.03 1.09 1.16 1.18 1.14 1.15 1.14 1.19 1.31 1.35 1.43 1.42 1.41 1.38 1.35 1.31 1.33 1.32 1.35 1.26 1.35 1.45 1.46 1.53 1.53 1.47 1.49 1.50 1.41 1.17 1.29 1.29 1.29
0.92 0.98 1.17 1.21 1.20 1.19 1.14 1.15 1.27 1.38 1.47 1.39 1.42 1.45 1.39 1.31 1.22 1.37 1.36 1.36 1.30 1.42 1.51 1.49 1.47 1.48 1.50 1.50 1.49 1.37 1.24 1.26 1.31
0.85 0.89 0.92 1.13 1.19 1.21 1.14 1.17 1.24 1.31 1.40 1.42 1.42 1.45 1.40 1.33 1.24 1.34 1.36 1.29 1.35 1.37 1.54 1.51 1.48 1.49 1.50 1.48 1.48 1.43 1.21 1.21 1.29
0.81 0.86 0.91 1.08 1.15 1.17 1.13 1.15 1.17 1.25 1.38 1.39 1.39 1.41 1.43 1.34 1.30 1.29 1.30 1.25 1.32 1.36 1.37 1.53 1.53 1.50 1.50 1.49 1.45 1.43 1.27 1.15 1.24
0.85 0.81 0.86 0.99 1.06 1.14 1.15 1.20 1.09 1.23 1.33 1.39 1.42 1.43 1.36 1.35 1.27 1.26 1.20 1.25 1.30 1.33 1.30 1.38 1.48 1.49 1.47 1.47 1.46 1.43 1.44 1.28 1.18
0.86 0.85 0.77 0.85 0.97 1.08 1.09 1.13 1.14 1.16 1.28 1.40 1.43 1.40 1.31 1.27 1.22 1.17 1.19 1.26 1.24 1.31 1.39 1.41 1.43 1.47 1.49 1.49 1.48 1.49 1.51 1.46 1.25
0.74 0.74 0.77 0.78 1.01 1.04 1.10 1.10 1.14 1.14 1.25 1.34 1.40 1.36 1.25 1.18 1.23 1.25 1.28 1.31 1.33 1.30 1.35 1.46 1.52 1.51 1.55 1.58 1.58 1.59 1.60 1.58 1.42
0.64 0.69 0.76 0.82 0.88 1.00 1.08 1.10 1.08 1.08 1.17 1.26 1.41 1.36 1.22 1.19 1.22 1.29 1.31 1.36 1.36 1.41 1.42 1.45 1.53 1.58 1.61 1.65 1.71 1.75 1.81 1.76 1.59
0.68 0.67 0.77 0.91 0.96 1.03 1.08 1.11 1.02 1.01 1.05 1.17 1.31 1.34 1.32 1.23 1.19 1.24 1.32 1.41 1.46 1.49 1.52 1.62 1.65 1.73 1.80 1.83 1.89 1.94 1.84 1.75 1.65
0.61 0.71 0.75 0.79 0.80 0.99 1.08 1.13 1.13 1.05 1.05 1.09 1.19 1.29 1.33 1.32 1.23 1.20 1.38 1.47 1.49 1.59 1.69 1.74 1.83 1.91 2.02 1.93 1.90 1.81 1.74 1.70 1.60
0.39 0.55 0.77 0.78 0.95 0.88 1.05 1.02 1.09 1.14 1.10 1.03 1.10 1.22 1.28 1.31 1.26 1.22 1.36 1.46 1.61 1.71 1.75 1.84 1.92 2.00 1.90 1.78 1.77 1.74 1.66 1.57 1.48
0.44 0.43 0.48 0.55 0.79 0.91 0.92 1.08 1.11 1.05 1.01 1.06 1.02 1.17 1.29 1.35 1.36 1.30 1.36 1.56 1.70 1.78 1.86 1.99 2.04 1.84 1.81 1.79 1.67 1.65 1.61 1.51 1.41
0.62 0.55 0.51 0.51 0.53 0.80 0.94 1.12 1.14 1.08 1.04 1.03 1.09 1.26 1.50 1.49 1.51 1.46 1.57 1.71 1.80 1.89 2.04 1.96 1.78 1.68 1.62 1.59 1.60 1.57 1.49 1.44 1.46
0.58 0.61 0.68 0.54 0.58 0.62 0.73 1.07 1.12 1.15 1.08 1.20 1.36 1.56 1.61 1.65 1.68 1.73 1.78 1.81 1.94 1.99 1.89 1.62 1.51 1.48 1.45 1.51 1.53 1.48 1.47 1.54 1.58
0.61 0.73 0.74 0.94 0.81 0.83 0.96 1.20 1.39 1.34 1.45 1.47 1.54 1.69 1.75 1.79 1.83 1.86 1.92 1.91 1.85 1.80 1.53 1.38 1.40 1.35 1.37 1.39 1.46 1.46 1.50 1.49 1.46
0.95 0.91 0.85 1.00 1.25 1.27 1.23 1.36 1.47 1.55 1.60 1.56 1.61 1.76 1.77 1.82 1.81 1.83 1.89 1.87 1.67 1.44 1.36 1.34 1.35 1.32 1.31 1.34 1.35 1.40 1.44 1.38 1.36
1.28 1.26 1.19 1.10 1.18 1.43 1.56 1.65 1.62 1.71 1.73 1.63 1.60 1.79 1.85 1.85 1.88 1.78 1.52 1.41 1.38 1.38 1.38 1.39 1.34 1.35 1.33 1.29 1.25 1.28 1.30 1.17 1.11
1.25 1.34 1.88 1.41 1.36 1.37 1.49 1.59 1.66 1.73 1.84 1.77 1.77 1.81 1.83 1.62 1.45 1.40 1.37 1.31 1.28 1.38 1.42 1.42 1.46 1.47 1.42 1.33 1.26 1.20 1.09 0.99 0.95
1.14 1.15 2.20 1.54 1.45 1.53 1.57 1.67 1.65 1.77 1.83 1.75 1.60 1.43 1.43 1.40 1.35 1.29 1.25 1.26 1.26 1.23 1.35 1.36 1.37 1.42 1.35 1.23 1.14 1.10 1.01 0.92 0.95

GFSFLT1_prec_pwat_021.txt.gz
Precipitable_Water
0.95 0.99 1.05 1.11 1.07 1.04 1.11 1.10 1.22 1.22 1.21 1.24 1.34 1.35 1.27 1.23 1.24 1.23 1.22 1.20 1.21 1.19 1.24 1.26 1.44 1.49 1.57 1.57 1.52 1.43 1.36 1.20 1.18
0.93 0.96 1.00 1.07 1.16 1.15 1.19 1.21 1.24 1.27 1.25 1.25 1.35 1.38 1.41 1.33 1.27 1.26 1.24 1.21 1.21 1.25 1.24 1.35 1.40 1.50 1.53 1.57 1.52 1.41 1.36 1.19 1.11
0.84 0.91 0.98 1.06 1.14 1.19 1.22 1.20 1.21 1.32 1.33 1.25 1.31 1.39 1.44 1.40 1.32 1.30 1.29 1.32 1.17 1.24 1.21 1.35 1.37 1.46 1.52 1.57 1.55 1.46 1.34 1.26 1.12
0.70 0.80 0.85 0.98 1.08 1.16 1.17 1.24 1.25 1.24 1.33 1.34 1.30 1.40 1.45 1.48 1.36 1.31 1.30 1.29 1.20 1.19 1.24 1.35 1.39 1.45 1.50 1.50 1.53 1.47 1.44 1.40 1.33
0.57 0.65 0.76 0.91 1.04 1.12 1.12 1.18 1.22 1.20 1.27 1.36 1.35 1.37 1.41 1.43 1.43 1.31 1.26 1.24 1.26 1.15 1.19 1.35 1.38 1.48 1.48 1.49 1.52 1.50 1.45 1.40 1.42
0.50 0.64 0.77 0.88 1.04 1.08 1.08 1.16 1.21 1.23 1.26 1.29 1.37 1.40 1.38 1.38 1.42 1.30 1.19 1.21 1.29 1.19 1.18 1.32 1.36 1.42 1.44 1.44 1.48 1.48 1.46 1.46 1.46
0.49 0.58 0.76 0.87 0.95 1.10 1.10 1.13 1.18 1.20 1.23 1.30 1.35 1.41 1.38 1.32 1.37 1.37 1.18 1.15 1.27 1.23 1.20 1.25 1.32 1.39 1.42 1.48 1.53 1.52 1.51 1.51 1.50
0.44 0.53 0.66 0.84 0.95 1.09 1.10 1.14 1.23 1.27 1.28 1.37 1.38 1.37 1.36 1.32 1.40 1.43 1.32 1.18 1.21 1.24 1.23 1.26 1.30 1.34 1.41 1.46 1.48 1.50 1.50 1.50 1.50
0.35 0.40 0.56 0.71 0.86 0.96 1.01 1.07 1.12 1.19 1.33 1.37 1.43 1.38 1.32 1.38 1.42 1.42 1.35 1.24 1.18 1.24 1.24 1.24 1.26 1.25 1.28 1.31 1.37 1.40 1.42 1.48 1.55
0.32 0.39 0.53 0.72 0.82 0.91 0.99 0.97 1.06 1.12 1.21 1.33 1.42 1.34 1.34 1.37 1.41 1.39 1.34 1.36 1.22 1.16 1.20 1.27 1.22 1.23 1.27 1.24 1.29 1.34 1.37 1.53 1.69
0.32 0.41 0.44 0.57 0.75 0.83 0.89 0.88 0.98 1.08 1.22 1.32 1.37 1.35 1.34 1.44 1.43 1.37 1.38 1.36 1.28 1.21 1.22 1.21 1.22 1.21 1.25 1.27 1.28 1.35 1.51 1.73 1.84
0.30 0.35 0.41 0.48 0.64 0.80 0.82 0.86 0.92 1.03 1.15 1.27 1.32 1.36 1.37 1.36 1.42 1.43 1.42 1.33 1.29 1.29 1.29 1.25 1.22 1.29 1.29 1.28 1.39 1.61 1.78 1.83 1.93
0.35 0.35 0.41 0.49 0.56 0.72 0.80 0.86 0.94 0.97 1.04 1.16 1.24 1.35 1.37 1.34 1.40 1.47 1.48 1.44 1.36 1.39 1.35 1.32 1.36 1.37 1.42 1.49 1.68 1.87 1.90 1.90 1.93
0.48 0.45 0.42 0.46 0.54 0.58 0.79 0.96 1.07 1.05 1.08 1.09 1.24 1.35 1.30 1.39 1.46 1.44 1.51 1.61 1.61 1.45 1.40 1.40 1.42 1.48 1.55 1.75 1.88 1.74 1.53 1.60 1.79
0.64 0.65 0.66 0.64 0.48 0.50 0.73 0.86 0.89 0.98 1.07 1.13 1.28 1.38 1.35 1.43 1.45 1.46 1.52 1.57 1.68 1.71 1.62 1.44 1.43 1.58 1.72 1.84 1.77 1.60 1.67 1.57 1.75
0.73 0.76 0.81 0.87 0.79 0.74 0.66 0.65 0.91 0.88 0.87 0.95 1.16 1.27 1.32 1.36 1.44 1.47 1.59 1.54 1.63 1.70 1.77 1.57 1.50 1.55 1.65 1.66 1.69 1.69 1.76 1.56 1.57
0.85 0.85 0.83 0.90 0.86 0.80 0.81 0.96 0.94 0.89 0.92 1.06 1.14 1.14 1.13 1.21 1.33 1.45 1.38 1.50 1.84 1.65 1.77 1.74 1.67 1.70 1.69 1.73 1.63 1.58 1.59 1.42 1.42
0.95 0.96 0.99 0.99 1.00 1.02 1.01 1.05 1.07 1.12 1.11 1.05 0.96 1.08 1.17 1.22 1.31 1.40 1.57 1.70 1.81 1.78 1.94 1.96 1.83 1.88 1.92 1.72 1.47 1.37 1.43 1.36 1.28
1.03 0.96 0.96 0.96 0.98 0.99 0.99 1.03 1.09 1.16 1.29 1.32 1.12 1.04 1.10 1.27 1.38 1.45 1.52 1.51 1.66 1.95 2.01 2.04 2.15 2.09 2.09 1.83 1.73 1.45 1.39 1.37 1.41
1.06 1.07 1.04 1.01 1.01 1.01 1.03 1.03 1.05 1.11 1.13 1.39 1.44 1.40 1.48 1.42 1.49 1.53 1.70 1.80 1.75 1.51 1.88 2.02 1.95 1.56 1.55 1.61 1.47 1.37 1.39 1.40 1.30

GFSFLT1_prec_pwat_024.txt.gz
Precipitable_Water
0.83 0.95 1.03 1.07 1.08 1.02 1.05 1.09 1.19 1.19 1.09 1.02 1.12 1.15 1.15 1.22 1.26 1.25 1.25 1.31 1.31 1.24 1.15 1.24 1.35 1.45 1.54 1.56 1.61 1.56 1.41 1.29 1.26
0.74 0.85 0.95 1.05 1.15 1.14 1.10 1.14 1.19 1.24 1.27 1.23 1.20 1.17 1.18 1.23 1.29 1.27 1.25 1.28 1.33 1.28 1.25 1.21 1.32 1.46 1.51 1.53 1.58 1.58 1.49 1.34 1.28
0.72 0.82 0.90 1.00 1.09 1.19 1.21 1.16 1.23 1.24 1.33 1.27 1.28 1.31 1.34 1.38 1.38 1.39 1.33 1.34 1.29 1.26 1.21 1.24 1.25 1.39 1.48 1.50 1.56 1.59 1.52 1.39 1.33
0.66 0.71 0.77 0.89 0.99 1.13 1.20 1.25 1.28 1.23 1.31 1.33 1.34 1.39 1.39 1.41 1.43 1.46 1.45 1.35 1.34 1.27 1.26 1.22 1.27 1.33 1.42 1.43 1.51 1.56 1.51 1.39 1.34
0.62 0.67 0.71 0.79 0.85 0.97 1.16 1.17 1.26 1.28 1.28 1.31 1.30 1.38 1.42 1.39 1.44 1.48 1.44 1.36 1.30 1.30 1.27 1.25 1.29 1.30 1.38 1.41 1.44 1.52 1.49 1.41 1.44
0.57 0.59 0.63 0.70 0.83 0.88 0.97 1.12 1.19 1.22 1.23 1.25 1.33 1.38 1.40 1.42 1.39 1.40 1.42 1.38 1.30 1.26 1.30 1.27 1.25 1.28 1.31 1.35 1.42 1.47 1.47 1.46 1.44
0.40 0.46 0.50 0.57 0.71 0.84 0.93 1.03 1.08 1.14 1.21 1.32 1.37 1.37 1.37 1.34 1.35 1.31 1.37 1.39 1.29 1.21 1.29 1.25 1.25 1.28 1.33 1.36 1.45 1.48 1.44 1.43 1.46
0.31 0.39 0.48 0.53 0.58 0.78 0.90 0.98 1.10 1.18 1.20 1.30 1.35 1.34 1.34 1.29 1.35 1.40 1.40 1.41 1.36 1.18 1.23 1.23 1.24 1.26 1.33 1.38 1.38 1.42 1.42 1.43 1.45
0.23 0.31 0.40 0.46 0.55 0.70 0.88 1.01 1.09 1.19 1.23 1.26 1.34 1.33 1.27 1.34 1.39 1.41 1.40 1.37 1.38 1.26 1.16 1.27 1.26 1.28 1.26 1.31 1.35 1.39 1.44 1.46 1.42
0.26 0.28 0.31 0.37 0.47 0.61 0.83 0.98 1.12 1.14 1.17 1.32 1.35 1.29 1.35 1.38 1.39 1.39 1.39 1.42 1.39 1.28 1.10 1.18 1.18 1.24 1.28 1.26 1.35 1.42 1.43 1.43 1.40
0.30 0.29 0.32 0.35 0.43 0.52 0.74 0.87 0.98 1.06 1.16 1.18 1.25 1.33 1.33 1.39 1.44 1.42 1.47 1.49 1.40 1.34 1.29 1.09 1.12 1.18 1.26 1.28 1.30 1.37 1.37 1.35 1.38
0.35 0.32 0.30 0.36 0.44 0.52 0.62 0.81 0.96 0.96 1.03 1.14 1.20 1.23 1.27 1.37 1.41 1.44 1.46 1.47 1.41 1.40 1.37 1.27 1.12 1.20 1.25 1.26 1.27 1.29 1.29 1.35 1.39
0.37 0.37 0.33 0.35 0.42 0.48 0.56 0.75 0.89 0.96 1.00 1.06 1.09 1.16 1.20 1.38 1.43 1.49 1.46 1.46 1.49 1.52 1.53 1.44 1.39 1.23 1.25 1.29 1.26 1.29 1.26 1.37 1.43
0.50 0.47 0.41 0.39 0.43 0.47 0.54 0.69 0.84 0.90 0.95 0.93 0.99 1.12 1.24 1.37 1.50 1.50 1.52 1.60 1.67 1.71 1.69 1.61 1.50 1.37 1.32 1.37 1.39 1.33 1.28 1.40 1.57
0.70 0.69 0.71 0.67 0.49 0.48 0.62 0.76 0.79 0.90 0.93 1.01 1.17 1.22 1.25 1.29 1.39 1.52 1.62 1.47 1.57 1.51 1.74 1.70 1.58 1.51 1.43 1.41 1.42 1.43 1.35 1.65 1.79
0.79 0.85 0.88 0.94 0.82 0.77 0.74 0.70 0.80 0.82 1.05 1.16 1.20 1.27 1.31 1.42 1.56 1.71 1.77 1.58 1.40 1.52 1.42 1.73 1.77 1.70 1.61 1.54 1.45 1.38 1.58 1.78 1.72
0.81 0.83 0.83 0.90 0.88 0.85 0.82 0.94 1.00 0.95 0.96 1.05 1.10 1.14 1.21 1.36 1.42 1.63 1.72 1.70 1.78 1.58 1.50 1.43 1.29 1.54 1.80 1.65 1.47 1.59 1.89 1.82 1.78
0.92 0.94 0.93 0.89 0.85 0.86 0.88 0.93 0.91 0.93 0.97 1.10 1.08 1.04 1.04 1.14 1.27 1.37 1.53 1.65 1.69 1.89 1.67 1.74 1.75 1.71 1.85 1.71 1.82 1.87 1.92 1.89 1.78
0.94 0.89 0.90 0.88 0.88 0.86 0.88 0.89 0.89 0.92 0.94 0.92 0.93 0.95 1.00 1.05 1.10 1.25 1.34 1.41 1.52 1.74 1.80 1.91 2.00 1.93 1.69 1.91 1.82 2.14 2.05 1.80 1.89
1.04 1.00 0.97 0.90 0.86 0.89 0.87 0.86 0.88 0.93 0.95 0.93 0.93 0.89 0.95 1.05 1.12 1.12 1.15 1.27 1.33 1.38 1.64 1.83 1.83 1.79 1.80 1.73 1.53 1.56 1.68 1.73 1.70

GFSFLT1_prec_pwat_027.txt.gz
Precipitable_Water
0.88 0.96 0.98 1.02 1.11 1.08 1.06 1.10 1.14 1.03 0.95 1.01 1.12 1.13 1.16 1.22 1.24 1.26 1.27 1.31 1.34 1.33 1.29 1.23 1.28 1.32 1.46 1.53 1.62 1.65 1.59 1.45 1.35
0.76 0.79 0.86 0.95 1.05 1.10 1.08 1.12 1.24 1.27 1.20 1.02 1.02 1.08 1.14 1.17 1.21 1.23 1.22 1.26 1.30 1.33 1.38 1.33 1.26 1.36 1.41 1.47 1.58 1.62 1.59 1.46 1.32
0.68 0.69 0.72 0.82 0.99 1.07 1.15 1.15 1.25 1.31 1.32 1.30 1.29 1.19 1.15 1.16 1.19 1.23 1.27 1.31 1.26 1.27 1.32 1.37 1.30 1.31 1.43 1.45 1.53 1.60 1.59 1.53 1.46
0.67 0.71 0.74 0.79 0.94 1.05 1.15 1.22 1.22 1.28 1.32 1.37 1.39 1.42 1.36 1.28 1.28 1.36 1.44 1.42 1.38 1.33 1.34 1.39 1.35 1.32 1.37 1.42 1.46 1.54 1.56 1.55 1.46
0.66 0.74 0.79 0.79 0.85 0.99 1.12 1.21 1.25 1.27 1.29 1.33 1.35 1.38 1.44 1.40 1.39 1.42 1.41 1.41 1.44 1.46 1.31 1.37 1.38 1.31 1.33 1.38 1.40 1.46 1.48 1.48 1.46
0.50 0.67 0.76 0.77 0.81 0.86 0.93 0.99 1.18 1.28 1.34 1.29 1.35 1.45 1.43 1.47 1.46 1.42 1.39 1.43 1.46 1.48 1.36 1.28 1.34 1.35 1.27 1.33 1.34 1.38 1.42 1.49 1.48
0.37 0.52 0.62 0.70 0.73 0.77 0.85 0.96 1.03 1.14 1.26 1.36 1.34 1.35 1.39 1.40 1.40 1.38 1.41 1.44 1.47 1.46 1.42 1.27 1.27 1.31 1.27 1.30 1.33 1.36 1.37 1.42 1.47
0.30 0.41 0.51 0.58 0.61 0.65 0.71 0.85 1.03 1.08 1.19 1.26 1.30 1.29 1.31 1.34 1.39 1.45 1.47 1.44 1.44 1.48 1.47 1.30 1.21 1.26 1.28 1.28 1.30 1.31 1.34 1.38 1.45
0.25 0.31 0.37 0.48 0.57 0.61 0.64 0.71 0.88 1.05 1.13 1.15 1.26 1.28 1.28 1.35 1.41 1.42 1.40 1.44 1.44 1.45 1.47 1.41 1.24 1.23 1.22 1.21 1.21 1.25 1.32 1.35 1.38
0.26 0.27 0.31 0.37 0.45 0.50 0.55 0.62 0.75 0.96 1.08 1.24 1.30 1.30 1.35 1.40 1.44 1.42 1.40 1.44 1.49 1.46 1.42 1.46 1.25 1.17 1.20 1.17 1.25 1.22 1.26 1.31 1.34
0.30 0.31 0.30 0.33 0.36 0.42 0.50 0.56 0.72 0.95 1.18 1.20 1.28 1.31 1.32 1.41 1.45 1.46 1.49 1.51 1.47 1.49 1.51 1.41 1.34 1.20 1.19 1.15 1.19 1.24 1.24 1.28 1.35
0.33 0.36 0.36 0.37 0.38 0.41 0.48 0.55 0.68 0.93 1.10 1.20 1.26 1.23 1.28 1.33 1.39 1.39 1.45 1.48 1.51 1.57 1.57 1.55 1.41 1.34 1.25 1.17 1.14 1.22 1.28 1.30 1.31
0.36 0.39 0.40 0.40 0.40 0.42 0.48 0.56 0.70 0.82 0.93 1.03 1.07 1.11 1.13 1.25 1.36 1.40 1.41 1.45 1.53 1.65 1.62 1.56 1.58 1.43 1.33 1.26 1.21 1.26 1.27 1.33 1.31
0.43 0.46 0.46 0.45 0.44 0.38 0.44 0.54 0.61 0.69 0.84 0.95 1.03 1.22 1.33 1.41 1.44 1.44 1.51 1.60 1.72 1.77 1.78 1.80 1.63 1.60 1.46 1.35 1.32 1.34 1.31 1.37 1.41
0.60 0.66 0.64 0.51 0.47 0.47 0.57 0.63 0.63 0.64 0.76 0.98 1.09 1.16 1.20 1.26 1.32 1.38 1.42 1.46 1.58 1.48 1.72 1.85 1.83 1.78 1.70 1.68 1.53 1.49 1.35 1.34 1.43
0.75 0.83 0.79 0.76 0.65 0.61 0.64 0.68 0.73 0.74 0.83 0.99 1.10 1.16 1.21 1.25 1.33 1.40 1.45 1.45 1.52 1.60 1.81 1.74 1.78 1.83 1.78 1.74 1.83 1.76 1.61 1.56 1.57
0.83 0.89 0.90 0.91 0.85 0.80 0.81 0.85 0.80 0.78 0.83 0.89 0.91 0.95 1.02 1.16 1.25 1.34 1.43 1.52 1.56 1.55 1.57 1.43 1.27 1.59 1.71 1.68 1.64 1.87 1.75 1.76 1.70
0.85 0.85 0.90 0.93 0.87 0.85 0.84 0.88 0.85 0.86 0.86 0.98 0.97 0.95 0.98 1.06 1.18 1.21 1.29 1.37 1.43 1.48 1.46 1.46 1.25 1.56 1.63 1.49 1.42 1.69 1.91 1.82 1.78
0.97 0.94 0.96 0.93 0.91 0.86 0.85 0.86 0.86 0.88 0.90 0.88 0.86 0.85 0.88 0.90 0.97 1.07 1.17 1.24 1.24 1.40 1.45 1.56 1.62 1.73 1.73 1.56 1.46 1.57 1.60 1.75 1.84
1.10 1.03 0.97 0.92 0.91 0.94 0.94 0.94 0.94 1.00 1.02 1.00 0.96 0.93 0.97 1.02 1.02 1.08 1.18 1.14 1.15 1.12 1.32 1.52 1.65 1.60 1.61 1.58 1.71 1.73 1.80 1.82 1.77

GFSFLT1_prec_pwat_030.txt.gz
Precipitable_Water
0.80 0.92 1.04 1.00 1.08 1.12 1.11 1.11 1.08 1.00 1.00 1.06 1.21 1.22 1.22 1.26 1.29 1.31 1.34 1.36 1.38 1.37 1.39 1.40 1.43 1.42 1.35 1.46 1.53 1.60 1.63 1.62 1.51
0.63 0.81 0.93 0.96 1.03 1.14 1.18 1.10 1.11 1.15 1.07 1.00 1.11 1.15 1.19 1.19 1.26 1.27 1.23 1.29 1.38 1.37 1.45 1.46 1.44 1.37 1.34 1.42 1.49 1.55 1.59 1.54 1.48
0.65 0.76 0.90 0.94 1.01 1.07 1.16 1.17 1.23 1.30 1.30 1.19 1.10 1.15 1.21 1.20 1.18 1.21 1.23 1.29 1.29 1.32 1.35 1.43 1.44 1.36 1.35 1.41 1.49 1.52 1.56 1.52 1.50
0.64 0.77 0.83 0.82 0.94 1.05 1.17 1.30 1.33 1.29 1.38 1.38 1.35 1.27 1.19 1.17 1.18 1.21 1.25 1.27 1.29 1.34 1.37 1.40 1.44 1.38 1.31 1.35 1.45 1.49 1.51 1.51 1.49
0.65 0.76 0.77 0.82 0.85 0.95 1.04 1.13 1.27 1.28 1.31 1.37 1.38 1.41 1.39 1.29 1.23 1.19 1.19 1.24 1.30 1.39 1.35 1.37 1.38 1.42 1.35 1.30 1.40 1.48 1.45 1.46 1.47
0.59 0.67 0.79 0.85 0.81 0.83 0.98 1.12 1.25 1.33 1.40 1.32 1.40 1.48 1.47 1.44 1.39 1.36 1.31 1.33 1.43 1.50 1.47 1.39 1.36 1.37 1.33 1.26 1.31 1.41 1.43 1.45 1.46
0.49 0.59 0.67 0.74 0.79 0.88 0.93 1.00 1.12 1.19 1.29 1.46 1.46 1.46 1.42 1.41 1.41 1.40 1.41 1.45 1.45 1.49 1.53 1.52 1.42 1.34 1.31 1.29 1.27 1.36 1.37 1.36 1.39
0.40 0.50 0.56 0.64 0.75 0.85 0.84 0.87 0.97 1.10 1.16 1.26 1.43 1.45 1.44 1.34 1.42 1.49 1.52 1.52 1.51 1.53 1.55 1.57 1.58 1.45 1.32 1.29 1.30 1.25 1.29 1.28 1.30
0.31 0.38 0.44 0.51 0.65 0.74 0.76 0.82 0.87 0.95 1.06 1.18 1.32 1.37 1.34 1.38 1.45 1.51 1.49 1.52 1.51 1.55 1.55 1.56 1.58 1.53 1.42 1.24 1.22 1.21 1.21 1.25 1.23
0.28 0.30 0.36 0.46 0.57 0.64 0.70 0.75 0.81 0.83 0.91 1.11 1.22 1.27 1.39 1.46 1.47 1.45 1.49 1.58 1.60 1.55 1.52 1.59 1.53 1.53 1.49 1.34 1.21 1.17 1.13 1.18 1.22
0.31 0.29 0.32 0.40 0.49 0.55 0.64 0.72 0.73 0.85 0.93 1.02 1.14 1.26 1.34 1.42 1.44 1.50 1.60 1.62 1.58 1.59 1.59 1.57 1.60 1.61 1.59 1.47 1.35 1.24 1.16 1.19 1.27
0.34 0.34 0.34 0.38 0.46 0.53 0.57 0.61 0.66 0.70 0.85 0.93 1.11 1.19 1.29 1.34 1.45 1.50 1.59 1.57 1.56 1.65 1.71 1.72 1.74 1.78 1.80 1.68 1.48 1.38 1.24 1.21 1.27
0.37 0.40 0.42 0.41 0.40 0.43 0.48 0.54 0.61 0.68 0.74 0.85 0.97 1.11 1.24 1.41 1.47 1.52 1.48 1.53 1.62 1.68 1.71 1.72 1.76 1.76 1.82 1.82 1.70 1.61 1.50 1.34 1.28
0.57 0.52 0.47 0.49 0.50 0.46 0.48 0.55 0.56 0.55 0.68 0.75 0.98 1.27 1.36 1.40 1.41 1.41 1.47 1.53 1.59 1.61 1.63 1.66 1.65 1.69 1.78 1.81 1.85 1.72 1.55 1.46 1.35
0.62 0.58 0.67 0.70 0.59 0.52 0.55 0.65 0.57 0.55 0.61 0.77 1.03 1.15 1.20 1.26 1.36 1.39 1.41 1.48 1.54 1.58 1.56 1.50 1.48 1.56 1.65 1.54 1.74 1.77 1.69 1.52 1.42
0.64 0.70 0.77 0.77 0.59 0.64 0.74 0.77 0.70 0.61 0.69 0.84 0.98 1.06 1.12 1.21 1.33 1.35 1.36 1.37 1.42 1.44 1.46 1.41 1.40 1.39 1.48 1.39 1.53 1.66 1.66 1.69 1.75
0.86 0.94 0.93 0.91 0.86 0.81 0.80 0.86 0.88 0.88 0.90 0.94 0.94 0.97 1.07 1.19 1.29 1.33 1.41 1.46 1.49 1.45 1.45 1.43 1.40 1.38 1.34 1.33 1.50 1.60 1.65 1.65 1.81
0.96 1.00 0.98 1.02 1.03 0.99 0.92 0.96 0.96 1.01 1.07 1.11 0.97 0.98 1.03 1.09 1.16 1.25 1.30 1.34 1.36 1.36 1.45 1.49 1.46 1.47 1.51 1.49 1.45 1.59 1.64 1.58 1.64
1.03 1.02 1.06 1.06 1.07 1.04 1.03 1.03 1.01 1.02 1.04 1.02 1.01 1.00 1.01 1.02 1.06 1.13 1.18 1.18 1.24 1.36 1.40 1.44 1.48 1.52 1.47 1.48 1.57 1.64 1.59 1.55 1.74
1.12 1.13 1.12 1.14 1.14 1.14 1.11 1.08 1.02 1.00 1.01 1.02 0.97 0.93 0.96 0.98 1.00 1.01 1.07 1.17 1.20 1.21 1.38 1.34 1.36 1.38 1.48 1.45 1.36 1.44 1.50 1.66 1.86

GFSFLT1_prec_pwat_033.txt.gz
Precipitable_Water
0.82 0.93 1.07 1.15 1.19 1.21 1.16 1.04 1.01 1.05 1.15 1.18 1.27 1.24 1.25 1.23 1.24 1.24 1.24 1.26 1.30 1.30 1.33 1.33 1.46 1.53 1.52 1.44 1.53 1.58 1.62 1.65 1.56
0.75 0.90 1.00 1.04 1.17 1.16 1.18 1.14 1.07 1.03 0.99 1.04 1.11 1.12 1.18 1.23 1.22 1.19 1.22 1.28 1.33 1.41 1.36 1.37 1.46 1.54 1.46 1.44 1.43 1.56 1.58 1.53 1.58
0.64 0.77 0.98 0.99 1.06 1.11 1.23 1.22 1.16 1.10 1.10 1.02 0.92 1.00 1.07 1.13 1.19 1.21 1.23 1.32 1.32 1.32 1.38 1.36 1.50 1.40 1.42 1.37 1.36 1.47 1.54 1.51 1.58
0.59 0.65 0.88 0.98 1.01 1.10 1.22 1.30 1.30 1.17 1.17 1.19 1.19 1.09 1.08 1.13 1.17 1.21 1.29 1.27 1.32 1.34 1.36 1.39 1.32 1.41 1.37 1.30 1.28 1.37 1.50 1.46 1.53
0.56 0.66 0.83 1.03 1.06 1.12 1.21 1.27 1.31 1.33 1.33 1.32 1.36 1.39 1.33 1.23 1.23 1.22 1.21 1.26 1.32 1.39 1.38 1.41 1.39 1.41 1.41 1.40 1.31 1.33 1.44 1.42 1.39
0.59 0.70 0.84 1.05 1.06 1.00 1.06 1.14 1.22 1.32 1.39 1.37 1.44 1.52 1.49 1.45 1.36 1.25 1.17 1.21 1.25 1.28 1.34 1.39 1.40 1.41 1.42 1.37 1.34 1.27 1.34 1.43 1.36
0.57 0.67 0.78 0.92 0.95 0.93 1.01 1.05 1.15 1.26 1.41 1.53 1.56 1.57 1.58 1.52 1.49 1.37 1.33 1.34 1.34 1.32 1.36 1.36 1.39 1.43 1.42 1.38 1.31 1.31 1.25 1.29 1.35
0.55 0.61 0.68 0.81 0.89 0.97 0.98 1.02 1.13 1.22 1.32 1.46 1.55 1.58 1.58 1.55 1.55 1.57 1.55 1.51 1.48 1.45 1.43 1.44 1.53 1.56 1.55 1.52 1.41 1.28 1.25 1.20 1.27
0.48 0.50 0.56 0.63 0.67 0.84 0.94 0.96 1.04 1.14 1.18 1.23 1.38 1.43 1.47 1.60 1.63 1.64 1.59 1.61 1.58 1.57 1.48 1.50 1.54 1.54 1.57 1.58 1.54 1.43 1.28 1.28 1.23
0.41 0.45 0.48 0.54 0.59 0.68 0.87 0.98 1.04 1.06 1.09 1.19 1.22 1.32 1.46 1.54 1.61 1.62 1.64 1.65 1.65 1.60 1.57 1.58 1.52 1.55 1.61 1.61 1.65 1.55 1.41 1.28 1.33
0.39 0.38 0.42 0.46 0.52 0.61 0.73 0.81 0.97 1.03 1.10 1.14 1.11 1.14 1.32 1.39 1.47 1.56 1.66 1.64 1.63 1.65 1.72 1.68 1.65 1.65 1.68 1.67 1.66 1.66 1.52 1.41 1.35
0.44 0.41 0.41 0.41 0.46 0.53 0.63 0.70 0.82 0.95 1.07 1.07 1.10 1.05 1.11 1.29 1.43 1.53 1.60 1.51 1.56 1.64 1.68 1.70 1.67 1.73 1.74 1.71 1.68 1.75 1.70 1.55 1.44
0.60 0.50 0.47 0.48 0.48 0.51 0.57 0.61 0.69 0.74 0.81 0.95 1.01 0.99 1.09 1.30 1.43 1.47 1.51 1.55 1.56 1.66 1.70 1.65 1.73 1.72 1.74 1.74 1.70 1.75 1.73 1.71 1.56
0.85 0.83 0.75 0.73 0.69 0.62 0.58 0.58 0.60 0.65 0.70 0.76 0.87 1.11 1.15 1.24 1.40 1.42 1.53 1.56 1.58 1.66 1.68 1.70 1.68 1.67 1.71 1.72 1.72 1.70 1.71 1.72 1.70
0.80 0.81 0.78 0.74 0.74 0.85 0.81 0.64 0.65 0.68 0.66 0.67 0.87 0.95 1.07 1.23 1.41 1.44 1.55 1.55 1.62 1.69 1.70 1.64 1.60 1.61 1.62 1.66 1.66 1.65 1.69 1.67 1.70
0.88 0.90 0.81 0.68 0.72 0.92 0.77 0.78 0.78 0.73 0.77 0.89 0.89 0.93 1.01 1.18 1.41 1.46 1.51 1.58 1.60 1.62 1.66 1.53 1.49 1.51 1.49 1.46 1.54 1.65 1.68 1.67 1.71
0.97 0.97 0.99 1.09 1.02 0.91 0.80 0.99 1.05 0.97 0.97 0.98 0.93 0.95 1.04 1.19 1.28 1.39 1.48 1.48 1.58 1.57 1.52 1.49 1.44 1.44 1.39 1.41 1.54 1.58 1.68 1.71 1.77
1.01 1.09 1.18 1.13 1.12 1.08 1.07 1.18 1.22 1.24 1.21 1.10 1.02 1.03 1.07 1.13 1.22 1.31 1.39 1.44 1.43 1.50 1.57 1.58 1.51 1.50 1.53 1.48 1.44 1.47 1.67 1.76 1.79
1.11 1.08 1.13 1.11 1.12 1.10 1.10 1.12 1.11 1.14 1.17 1.29 1.26 1.15 1.17 1.17 1.17 1.23 1.26 1.29 1.34 1.46 1.50 1.56 1.56 1.54 1.53 1.57 1.65 1.63 1.69 1.72 1.77
1.15 1.13 1.20 1.23 1.21 1.21 1.21 1.19 1.10 1.12 1.21 1.23 1.22 1.19 1.21 1.19 1.15 1.18 1.20 1.27 1.28 1.23 1.45 1.56 1.57 1.55 1.52 1.48 1.46 1.54 1.65 1.66 1.68

GFSFLT1_prec_pwat_036.txt.gz
Precipitable_Water
0.90 1.04 1.16 1.26 1.31 1.26 1.22 1.17 1.18 1.10 1.15 1.14 1.19 1.21 1.24 1.17 1.26 1.24 1.10 1.22 1.17 1.17 1.29 1.37 1.43 1.44 1.51 1.45 1.42 1.48 1.66 1.51 1.58
0.76 0.87 1.06 1.21 1.31 1.28 1.19 1.15 1.12 1.07 1.08 1.12 1.16 1.15 1.24 1.23 1.15 1.19 1.08 1.14 1.20 1.24 1.25 1.38 1.40 1.48 1.52 1.45 1.44 1.41 1.53 1.51 1.50
0.67 0.77 0.92 1.13 1.26 1.27 1.23 1.12 1.11 1.11 1.12 1.03 1.06 1.13 1.13 1.12 1.07 1.08 1.13 1.13 1.14 1.18 1.29 1.23 1.45 1.44 1.45 1.45 1.40 1.42 1.44 1.50 1.45
0.62 0.72 0.86 1.09 1.27 1.26 1.18 1.18 1.22 1.14 1.11 1.13 1.10 1.06 1.03 1.04 1.08 1.10 1.12 1.16 1.19 1.26 1.29 1.40 1.27 1.57 1.42 1.39 1.41 1.36 1.35 1.41 1.45
0.62 0.71 0.90 1.03 1.21 1.24 1.17 1.19 1.21 1.18 1.14 1.14 1.18 1.18 1.13 1.10 1.14 1.18 1.17 1.12 1.16 1.28 1.34 1.35 1.41 1.40 1.45 1.40 1.36 1.34 1.29 1.23 1.30
0.54 0.67 0.72 0.94 1.14 1.20 1.15 1.17 1.22 1.24 1.28 1.24 1.38 1.46 1.40 1.30 1.18 1.19 1.20 1.19 1.15 1.21 1.27 1.34 1.37 1.44 1.43 1.35 1.33 1.33 1.33 1.25 1.24
0.55 0.62 0.66 0.86 1.05 1.21 1.24 1.21 1.25 1.28 1.35 1.43 1.45 1.51 1.54 1.48 1.48 1.40 1.29 1.30 1.31 1.25 1.27 1.27 1.32 1.36 1.41 1.50 1.42 1.36 1.35 1.38 1.32
0.57 0.65 0.78 0.86 0.95 1.23 1.26 1.14 1.21 1.28 1.35 1.44 1.54 1.52 1.56 1.55 1.62 1.62 1.56 1.47 1.41 1.40 1.34 1.30 1.32 1.35 1.43 1.50 1.53 1.45 1.33 1.30 1.31
0.61 0.67 0.75 0.85 1.02 1.15 1.30 1.35 1.24 1.19 1.23 1.37 1.49 1.49 1.49 1.61 1.65 1.69 1.63 1.61 1.56 1.54 1.49 1.43 1.43 1.42 1.40 1.43 1.53 1.56 1.47 1.38 1.28
0.55 0.60 0.64 0.69 0.74 0.81 0.99 1.15 1.37 1.26 1.23 1.36 1.40 1.37 1.43 1.52 1.61 1.62 1.66 1.69 1.66 1.61 1.57 1.60 1.51 1.50 1.48 1.42 1.50 1.60 1.59 1.56 1.48
0.52 0.56 0.59 0.60 0.61 0.68 0.79 0.90 1.11 1.29 1.39 1.32 1.26 1.33 1.37 1.48 1.58 1.60 1.67 1.67 1.66 1.65 1.63 1.61 1.62 1.66 1.64 1.56 1.50 1.55 1.62 1.65 1.63
0.53 0.54 0.56 0.59 0.60 0.60 0.66 0.85 0.97 1.08 1.06 1.15 1.18 1.19 1.23 1.31 1.43 1.51 1.55 1.52 1.60 1.71 1.72 1.65 1.66 1.69 1.71 1.65 1.61 1.67 1.64 1.68 1.70
0.83 0.86 0.86 0.81 0.76 0.71 0.57 0.70 0.75 1.01 1.02 1.13 1.10 1.14 1.12 1.24 1.30 1.31 1.40 1.50 1.59 1.74 1.78 1.72 1.74 1.71 1.73 1.74 1.68 1.76 1.76 1.78 1.78
0.91 0.89 0.88 0.87 0.78 0.73 0.74 0.74 0.75 0.77 0.93 1.00 1.06 1.13 1.18 1.19 1.23 1.22 1.32 1.52 1.64 1.67 1.72 1.76 1.68 1.67 1.75 1.74 1.73 1.74 1.78 1.77 1.79
0.93 0.89 0.93 0.91 0.80 0.76 0.82 0.88 0.73 0.66 0.71 0.75 0.83 0.96 1.10 1.16 1.25 1.28 1.32 1.44 1.61 1.68 1.66 1.68 1.64 1.63 1.64 1.70 1.75 1.82 1.81 1.79 1.80
1.05 1.08 1.09 1.02 0.86 0.72 0.74 1.01 0.87 0.65 0.74 0.87 0.85 0.91 0.96 1.04 1.18 1.27 1.33 1.43 1.58 1.63 1.65 1.65 1.64 1.61 1.59 1.66 1.77 1.80 1.82 1.85 1.84
1.05 1.23 1.16 1.34 1.22 1.11 1.05 0.99 1.02 0.98 0.91 0.93 1.00 0.97 1.01 1.05 1.08 1.17 1.29 1.43 1.64 1.61 1.57 1.56 1.62 1.63 1.65 1.71 1.75 1.80 1.85 1.86 1.83
1.08 1.17 1.30 1.24 1.23 1.29 1.31 1.30 1.24 1.24 1.23 1.17 1.02 1.01 1.09 1.12 1.16 1.22 1.34 1.44 1.48 1.66 1.73 1.72 1.67 1.70 1.69 1.63 1.65 1.78 1.79 1.77 1.78
0.96 0.97 1.21 1.18 1.18 1.25 1.29 1.26 1.19 1.24 1.28 1.31 1.23 1.13 1.15 1.15 1.21 1.31 1.37 1.43 1.43 1.55 1.66 1.73 1.71 1.66 1.66 1.69 1.65 1.62 1.63 1.67 1.70
1.01 1.00 1.22 1.19 1.21 1.27 1.29 1.23 1.13 1.13 1.21 1.32 1.29 1.25 1.29 1.32 1.33 1.47 1.46 1.47 1.44 1.37 1.48 1.51 1.54 1.53 1.48 1.46 1.42 1.43 1.46 1.50 1.56

GFSFLT1_prec_pwat_039.txt.gz
Precipitable_Water
1.00 1.12 1.13 1.18 1.25 1.27 1.21 1.22 1.21 1.12 1.16 1.16 1.21 1.21 1.16 1.18 1.28 1.22 1.16 1.13 1.10 1.11 1.24 1.30 1.38 1.43 1.51 1.45 1.43 1.38 1.47 1.50 1.44
0.91 1.06 1.10 1.16 1.23 1.26 1.22 1.21 1.20 1.16 1.10 1.15 1.20 1.20 1.20 1.17 1.15 1.22 1.09 1.06 1.16 1.13 1.17 1.30 1.36 1.44 1.48 1.53 1.47 1.37 1.33 1.47 1.38
0.74 0.89 1.02 1.14 1.19 1.24 1.27 1.21 1.24 1.23 1.14 1.12 1.16 1.22 1.21 1.14 1.01 1.04 1.15 1.10 1.02 1.15 1.12 1.17 1.36 1.37 1.46 1.50 1.46 1.41 1.32 1.36 1.46
0.72 0.86 0.97 1.09 1.18 1.26 1.32 1.21 1.16 1.12 1.14 1.13 1.19 1.20 1.14 1.12 1.08 1.04 1.10 1.13 1.06 1.09 1.17 1.18 1.17 1.31 1.39 1.39 1.42 1.44 1.35 1.23 1.36
0.55 0.82 0.94 1.07 1.18 1.26 1.30 1.19 1.11 1.09 1.12 1.07 1.05 1.11 1.14 1.14 1.16 1.14 1.11 1.15 1.16 1.04 1.09 1.14 1.26 1.26 1.30 1.38 1.38 1.45 1.48 1.28 1.19
0.48 0.68 0.91 1.05 1.16 1.21 1.26 1.19 1.04 1.07 1.10 1.07 1.08 1.09 1.13 1.13 1.16 1.21 1.14 1.14 1.11 1.14 1.04 1.09 1.18 1.38 1.37 1.36 1.39 1.36 1.36 1.34 1.18
0.46 0.56 0.90 1.04 1.10 1.21 1.26 1.21 1.01 1.13 1.21 1.25 1.25 1.27 1.26 1.20 1.15 1.18 1.22 1.19 1.12 1.08 1.12 1.07 1.17 1.25 1.39 1.41 1.36 1.37 1.38 1.34 1.30
0.51 0.54 0.75 1.00 1.03 1.15 1.24 1.28 1.11 1.17 1.28 1.33 1.39 1.34 1.32 1.35 1.43 1.40 1.36 1.29 1.23 1.22 1.17 1.22 1.21 1.22 1.30 1.40 1.47 1.46 1.41 1.36 1.29
0.57 0.62 0.73 0.91 1.11 1.15 1.22 1.29 1.27 1.11 1.22 1.30 1.40 1.41 1.40 1.48 1.50 1.54 1.54 1.44 1.37 1.30 1.24 1.24 1.27 1.27 1.28 1.31 1.39 1.48 1.49 1.45 1.40
0.56 0.62 0.68 0.81 0.97 1.21 1.36 1.40 1.46 1.36 1.25 1.31 1.36 1.35 1.43 1.52 1.59 1.56 1.56 1.58 1.55 1.46 1.38 1.38 1.29 1.30 1.33 1.31 1.38 1.48 1.53 1.55 1.54
0.60 0.65 0.68 0.72 0.80 0.96 1.12 1.33 1.57 1.54 1.40 1.33 1.26 1.30 1.37 1.47 1.50 1.52 1.63 1.65 1.62 1.62 1.57 1.51 1.49 1.50 1.48 1.47 1.48 1.52 1.53 1.60 1.65
0.78 0.79 0.80 0.81 0.85 0.91 0.98 0.97 1.10 1.52 1.56 1.46 1.36 1.31 1.35 1.37 1.46 1.47 1.53 1.57 1.61 1.69 1.70 1.66 1.60 1.62 1.61 1.56 1.59 1.67 1.65 1.68 1.69
0.82 0.86 0.86 0.82 0.81 0.86 0.85 0.93 0.99 1.02 1.23 1.37 1.37 1.38 1.34 1.44 1.46 1.44 1.43 1.48 1.53 1.64 1.68 1.66 1.75 1.69 1.69 1.64 1.59 1.72 1.77 1.83 1.80
0.98 0.94 0.88 0.88 0.83 0.82 0.89 0.95 0.96 0.99 1.05 1.10 1.16 1.29 1.36 1.35 1.37 1.37 1.36 1.41 1.49 1.55 1.60 1.65 1.66 1.67 1.72 1.72 1.71 1.77 1.86 1.91 1.88
1.07 1.03 1.04 1.05 0.85 0.78 0.81 0.87 0.95 0.89 0.87 1.10 1.21 1.23 1.26 1.24 1.25 1.28 1.37 1.39 1.46 1.50 1.54 1.55 1.59 1.61 1.64 1.70 1.75 1.80 1.86 1.88 1.91
1.08 1.06 1.07 1.17 1.11 1.05 0.96 0.92 0.90 0.84 0.98 1.02 1.11 1.11 1.13 1.18 1.22 1.23 1.26 1.29 1.36 1.45 1.52 1.49 1.51 1.61 1.58 1.62 1.78 1.80 1.83 1.90 1.92
1.10 1.11 1.09 1.21 1.14 1.18 1.21 1.24 1.14 1.06 1.05 1.04 0.95 0.99 1.01 0.94 0.99 1.10 1.20 1.29 1.32 1.36 1.41 1.44 1.56 1.63 1.61 1.66 1.70 1.73 1.82 1.85 1.88
1.09 1.08 1.05 1.12 1.16 1.18 1.32 1.43 1.37 1.25 1.11 1.07 1.01 0.87 0.96 1.02 1.06 1.09 1.12 1.18 1.28 1.36 1.52 1.62 1.64 1.68 1.71 1.64 1.64 1.76 1.83 1.85 1.88
0.96 0.98 0.92 0.90 1.09 1.15 1.19 1.32 1.37 1.37 1.35 1.30 1.20 1.12 1.07 1.13 1.15 1.19 1.20 1.18 1.27 1.46 1.63 1.73 1.79 1.80 1.85 1.86 1.86 1.84 1.80 1.75 1.70
0.75 0.92 0.90 0.88 1.10 1.23 1.26 1.27 1.22 1.22 1.25 1.29 1.32 1.25 1.28 1.32 1.31 1.27 1.19 1.26 1.30 1.25 1.37 1.48 1.57 1.63 1.63 1.62 1.52 1.48 1.49 1.49 1.50

GFSFLT1_prec_pwat_042.txt.gz
Precipitable_Water
0.94 1.00 1.12 1.20 1.30 1.34 1.28 1.31 1.27 1.20 1.17 1.14 1.23 1.24 1.20 1.19 1.14 1.11 1.09 1.11 1.10 1.09 1.13 1.22 1.32 1.35 1.43 1.48 1.48 1.41 1.47 1.53 1.51
0.94 1.00 1.12 1.15 1.28 1.32 1.28 1.29 1.24 1.24 1.19 1.10 1.16 1.17 1.21 1.20 1.17 1.14 1.09 1.08 1.12 1.11 1.19 1.27 1.34 1.36 1.37 1.50 1.45 1.43 1.40 1.43 1.45
0.77 1.03 1.13 1.13 1.22 1.31 1.33 1.29 1.23 1.26 1.31 1.11 1.07 1.18 1.18 1.19 1.18 1.18 1.14 1.12 1.09 1.08 1.09 1.19 1.26 1.33 1.36 1.49 1.53 1.47 1.42 1.40 1.46
0.68 0.91 1.10 1.11 1.16 1.27 1.30 1.31 1.26 1.30 1.27 1.24 1.11 1.11 1.15 1.17 1.17 1.15 1.21 1.16 1.08 1.07 1.13 1.13 1.15 1.24 1.30 1.39 1.47 1.54 1.45 1.34 1.37
0.67 0.73 0.94 1.05 1.13 1.21 1.27 1.29 1.31 1.22 1.21 1.22 1.15 1.07 1.09 1.13 1.20 1.18 1.11 1.11 1.15 1.14 1.09 1.13 1.17 1.17 1.27 1.37 1.43 1.45 1.40 1.32 1.27
0.45 0.65 0.85 0.97 1.11 1.19 1.22 1.25 1.28 1.22 1.11 1.13 1.14 1.10 1.08 1.11 1.15 1.14 1.11 1.09 1.13 1.18 1.13 1.11 1.18 1.27 1.20 1.21 1.25 1.33 1.37 1.36 1.32
0.38 0.58 0.74 0.90 1.07 1.14 1.20 1.26 1.29 1.20 1.12 1.19 1.16 1.13 1.05 1.02 1.06 1.13 1.12 1.11 1.09 1.13 1.13 1.09 1.08 1.17 1.22 1.27 1.29 1.31 1.32 1.33 1.28
0.42 0.59 0.75 0.89 1.01 1.09 1.21 1.27 1.28 1.16 1.04 1.15 1.16 1.12 1.08 1.04 1.07 1.11 1.14 1.13 1.13 1.13 1.14 1.15 1.12 1.08 1.14 1.21 1.31 1.37 1.34 1.32 1.27
0.48 0.55 0.69 0.83 0.99 1.07 1.18 1.24 1.23 1.12 1.09 1.13 1.29 1.22 1.20 1.23 1.25 1.26 1.24 1.20 1.15 1.17 1.15 1.10 1.13 1.12 1.14 1.17 1.28 1.39 1.42 1.45 1.41
0.54 0.60 0.71 0.83 0.92 1.02 1.13 1.21 1.26 1.14 1.17 1.23 1.29 1.33 1.38 1.38 1.37 1.37 1.41 1.45 1.43 1.36 1.23 1.18 1.10 1.10 1.15 1.17 1.24 1.32 1.38 1.44 1.47
0.66 0.73 0.85 0.97 1.03 1.11 1.26 1.35 1.41 1.43 1.40 1.32 1.23 1.30 1.37 1.47 1.56 1.55 1.56 1.57 1.54 1.48 1.51 1.44 1.32 1.22 1.21 1.22 1.24 1.33 1.39 1.46 1.52
0.87 0.88 0.90 0.97 1.08 1.14 1.26 1.37 1.46 1.50 1.50 1.45 1.31 1.32 1.29 1.42 1.49 1.48 1.54 1.55 1.61 1.65 1.63 1.58 1.55 1.52 1.47 1.42 1.44 1.55 1.62 1.66 1.65
1.01 1.02 0.99 0.93 1.00 1.00 1.07 1.23 1.41 1.48 1.46 1.47 1.27 1.20 1.25 1.45 1.52 1.48 1.42 1.45 1.51 1.59 1.68 1.68 1.74 1.65 1.66 1.65 1.63 1.70 1.73 1.79 1.78
1.12 1.10 1.10 1.11 1.00 0.97 0.98 1.09 1.13 1.19 1.28 1.32 1.47 1.47 1.48 1.53 1.49 1.47 1.52 1.48 1.48 1.50 1.52 1.57 1.61 1.61 1.70 1.72 1.74 1.75 1.78 1.81 1.80
1.05 1.05 1.11 1.17 1.10 1.06 1.09 1.07 1.07 1.00 1.12 1.34 1.45 1.48 1.51 1.49 1.48 1.49 1.53 1.49 1.49 1.51 1.50 1.45 1.44 1.45 1.49 1.64 1.77 1.84 1.83 1.85 1.85
1.07 1.06 1.08 1.18 1.14 1.17 1.19 1.15 1.15 1.12 1.25 1.29 1.29 1.41 1.46 1.52 1.54 1.55 1.55 1.50 1.47 1.46 1.49 1.44 1.41 1.40 1.38 1.45 1.68 1.81 1.88 1.88 1.86
1.07 1.11 1.07 1.15 1.16 1.11 1.12 1.14 1.12 1.19 1.27 1.31 1.24 1.09 1.21 1.31 1.31 1.38 1.45 1.48 1.45 1.40 1.36 1.34 1.36 1.39 1.41 1.46 1.59 1.74 1.87 1.87 1.87
0.97 1.05 1.09 1.14 1.16 1.16 1.17 1.21 1.16 1.20 1.21 1.21 1.15 1.10 1.02 0.99 1.07 1.07 1.10 1.21 1.27 1.30 1.34 1.32 1.25 1.32 1.41 1.45 1.51 1.70 1.87 1.85 1.85
0.93 0.91 1.07 1.06 1.13 1.15 1.18 1.19 1.11 1.12 1.22 1.23 1.19 1.17 1.15 1.10 1.05 1.08 1.15 1.14 1.15 1.33 1.38 1.39 1.44 1.46 1.54 1.54 1.70 1.79 1.80 1.84 1.87
0.84 0.95 0.89 0.94 0.98 1.18 1.19 1.17 1.11 1.09 1.12 1.16 1.16 1.13 1.13 1.17 1.21 1.17 1.12 1.17 1.17 1.11 1.24 1.29 1.34 1.48 1.58 1.59 1.58 1.62 1.70 1.71 1.68

GFSFLT1_prec_pwat_045.txt.gz
Precipitable_Water
1.00 1.07 1.20 1.27 1.34 1.37 1.33 1.25 1.20 1.13 1.15 1.18 1.29 1.30 1.30 1.31 1.29 1.23 1.13 1.04 1.03 1.08 1.11 1.18 1.26 1.30 1.38 1.44 1.43 1.50 1.54 1.51 1.53
0.98 1.09 1.16 1.19 1.35 1.36 1.32 1.28 1.23 1.14 1.11 1.17 1.21 1.24 1.27 1.28 1.29 1.25 1.14 1.09 1.09 1.10 1.17 1.23 1.26 1.31 1.30 1.40 1.48 1.47 1.51 1.45 1.47
0.81 0.99 1.10 1.19 1.26 1.36 1.37 1.32 1.24 1.26 1.26 1.18 1.17 1.21 1.25 1.24 1.24 1.24 1.19 1.16 1.08 1.08 1.17 1.23 1.25 1.29 1.29 1.34 1.40 1.45 1.43 1.45 1.43
0.61 0.82 1.00 1.12 1.16 1.28 1.36 1.39 1.27 1.20 1.27 1.31 1.30 1.27 1.23 1.21 1.21 1.23 1.24 1.18 1.13 1.10 1.13 1.19 1.19 1.23 1.31 1.32 1.38 1.43 1.38 1.36 1.44
0.53 0.67 0.80 1.03 1.10 1.21 1.32 1.29 1.29 1.27 1.25 1.28 1.37 1.29 1.21 1.18 1.23 1.24 1.21 1.15 1.12 1.13 1.09 1.17 1.16 1.20 1.23 1.29 1.34 1.38 1.37 1.31 1.35
0.47 0.54 0.67 0.83 1.05 1.13 1.24 1.30 1.28 1.31 1.34 1.28 1.34 1.36 1.21 1.18 1.20 1.19 1.13 1.15 1.13 1.12 1.11 1.17 1.20 1.18 1.15 1.13 1.21 1.30 1.36 1.38 1.38
0.44 0.50 0.61 0.73 0.95 1.02 1.13 1.27 1.32 1.31 1.34 1.27 1.31 1.33 1.24 1.14 1.14 1.13 1.10 1.08 1.12 1.14 1.14 1.12 1.12 1.14 1.11 1.17 1.23 1.25 1.31 1.33 1.32
0.38 0.43 0.50 0.67 0.79 0.91 1.07 1.22 1.32 1.39 1.32 1.20 1.16 1.19 1.20 1.09 1.12 1.14 1.13 1.11 1.10 1.13 1.15 1.10 1.09 1.11 1.13 1.12 1.20 1.22 1.20 1.23 1.25
0.38 0.49 0.52 0.61 0.78 0.88 1.03 1.16 1.25 1.32 1.27 1.22 1.20 1.15 1.06 1.06 1.07 1.08 1.10 1.10 1.11 1.11 1.10 1.11 1.09 1.04 1.02 1.05 1.08 1.17 1.25 1.31 1.29
0.41 0.43 0.51 0.67 0.77 0.89 0.99 1.14 1.25 1.27 1.17 1.09 1.16 1.22 1.19 1.14 1.13 1.11 1.12 1.12 1.11 1.12 1.09 1.09 1.06 1.05 1.04 1.03 1.11 1.15 1.17 1.23 1.28
0.63 0.58 0.64 0.71 0.80 0.90 1.03 1.18 1.29 1.35 1.25 1.15 1.21 1.35 1.41 1.43 1.37 1.34 1.40 1.41 1.34 1.34 1.36 1.28 1.15 1.07 1.11 1.12 1.15 1.18 1.20 1.23 1.30
0.89 0.81 0.80 0.86 0.91 0.94 1.13 1.19 1.32 1.36 1.22 1.24 1.21 1.24 1.36 1.42 1.52 1.53 1.55 1.52 1.48 1.48 1.49 1.47 1.43 1.42 1.37 1.30 1.29 1.33 1.31 1.36 1.39
1.05 1.00 0.97 0.94 1.04 1.13 1.22 1.29 1.39 1.39 1.37 1.32 1.28 1.20 1.27 1.44 1.58 1.58 1.56 1.61 1.63 1.67 1.70 1.62 1.64 1.60 1.60 1.58 1.55 1.65 1.66 1.68 1.65
1.21 1.17 1.16 1.19 1.19 1.19 1.26 1.32 1.38 1.39 1.46 1.38 1.43 1.51 1.39 1.51 1.61 1.62 1.65 1.66 1.69 1.63 1.59 1.65 1.67 1.69 1.75 1.75 1.72 1.73 1.77 1.78 1.73
1.17 1.17 1.22 1.23 1.17 1.23 1.26 1.30 1.41 1.43 1.47 1.58 1.63 1.59 1.46 1.50 1.53 1.66 1.62 1.57 1.59 1.58 1.51 1.45 1.46 1.49 1.55 1.67 1.76 1.82 1.85 1.85 1.82
1.10 1.17 1.23 1.30 1.24 1.23 1.29 1.35 1.38 1.38 1.53 1.59 1.52 1.48 1.46 1.41 1.43 1.50 1.60 1.57 1.54 1.46 1.50 1.44 1.39 1.37 1.37 1.44 1.59 1.65 1.71 1.78 1.82
1.03 1.12 1.19 1.29 1.27 1.23 1.25 1.36 1.36 1.37 1.47 1.54 1.48 1.45 1.51 1.56 1.54 1.53 1.63 1.66 1.63 1.56 1.59 1.45 1.37 1.36 1.35 1.42 1.45 1.50 1.64 1.69 1.75
1.03 1.04 1.16 1.26 1.26 1.27 1.25 1.27 1.22 1.22 1.23 1.25 1.20 1.22 1.27 1.31 1.37 1.47 1.54 1.62 1.56 1.57 1.57 1.55 1.42 1.41 1.46 1.41 1.35 1.46 1.68 1.75 1.75
1.04 1.04 1.07 1.14 1.19 1.23 1.29 1.30 1.27 1.23 1.19 1.16 1.05 1.02 1.07 1.10 1.14 1.18 1.25 1.27 1.26 1.37 1.41 1.46 1.52 1.57 1.56 1.52 1.54 1.62 1.71 1.78 1.81
0.93 0.94 0.96 1.01 1.07 1.21 1.25 1.25 1.22 1.21 1.16 1.09 1.04 0.97 0.99 1.01 1.07 1.14 1.11 1.07 1.03 0.98 1.14 1.34 1.44 1.52 1.56 1.53 1.44 1.49 1.59 1.63 1.66

GFSFLT1_prec_pwat_048.txt.gz
Precipitable_Water
1.09 1.20 1.27 1.35 1.43 1.38 1.27 1.22 1.12 1.10 1.11 1.13 1.20 1.18 1.21 1.28 1.27 1.21 1.22 1.20 1.11 1.00 0.97 1.03 1.21 1.26 1.32 1.36 1.46 1.49 1.55 1.49 1.50
0.92 1.06 1.17 1.26 1.41 1.45 1.41 1.30 1.24 1.15 1.10 1.12 1.18 1.18 1.19 1.23 1.27 1.23 1.19 1.20 1.22 1.09 1.02 1.06 1.21 1.28 1.29 1.34 1.42 1.49 1.50 1.47 1.44
0.84 0.96 1.04 1.16 1.30 1.42 1.45 1.36 1.33 1.32 1.23 1.13 1.13 1.18 1.20 1.20 1.23 1.25 1.25 1.26 1.22 1.18 1.10 1.10 1.18 1.26 1.32 1.27 1.35 1.40 1.48 1.47 1.48
0.72 0.82 0.91 1.03 1.17 1.30 1.45 1.48 1.41 1.32 1.26 1.19 1.19 1.21 1.21 1.24 1.23 1.25 1.27 1.24 1.25 1.23 1.18 1.13 1.15 1.25 1.27 1.25 1.25 1.31 1.35 1.42 1.46
0.70 0.72 0.79 0.87 1.04 1.19 1.34 1.40 1.38 1.28 1.27 1.21 1.20 1.22 1.22 1.20 1.25 1.25 1.23 1.22 1.25 1.28 1.18 1.16 1.13 1.22 1.25 1.24 1.21 1.32 1.30 1.27 1.40
0.66 0.71 0.77 0.87 0.98 1.09 1.19 1.30 1.35 1.27 1.24 1.21 1.29 1.30 1.27 1.25 1.24 1.22 1.20 1.22 1.25 1.27 1.23 1.15 1.12 1.13 1.11 1.11 1.18 1.22 1.32 1.33 1.32
0.49 0.52 0.59 0.69 0.82 0.91 1.12 1.17 1.28 1.33 1.25 1.30 1.34 1.35 1.30 1.24 1.23 1.23 1.22 1.25 1.25 1.22 1.23 1.19 1.13 1.07 1.05 1.05 1.08 1.16 1.22 1.29 1.34
0.48 0.47 0.48 0.58 0.69 0.80 0.93 1.17 1.23 1.37 1.39 1.39 1.38 1.28 1.31 1.25 1.25 1.28 1.27 1.24 1.22 1.21 1.20 1.18 1.15 1.07 1.04 1.08 1.09 1.11 1.14 1.16 1.18
0.52 0.52 0.49 0.52 0.63 0.75 0.88 1.08 1.14 1.25 1.37 1.36 1.40 1.21 1.24 1.32 1.28 1.23 1.18 1.16 1.14 1.16 1.16 1.16 1.15 1.09 1.04 1.00 1.03 1.03 1.03 1.09 1.11
0.55 0.54 0.48 0.41 0.54 0.71 0.83 1.00 1.09 1.17 1.28 1.43 1.33 1.05 1.09 1.15 1.18 1.14 1.12 1.12 1.10 1.07 1.07 1.13 1.11 1.10 1.10 1.01 1.00 1.01 1.03 1.07 1.11
0.70 0.75 0.61 0.58 0.66 0.76 0.83 1.00 1.10 1.25 1.31 1.37 1.27 1.04 1.09 1.14 1.10 1.07 1.11 1.11 1.09 1.09 1.11 1.07 1.09 1.09 1.08 1.05 1.02 1.06 1.07 1.09 1.14
0.91 0.86 0.77 0.75 0.77 0.87 0.94 1.05 1.17 1.24 1.32 1.25 1.11 1.11 1.16 1.23 1.19 1.15 1.18 1.17 1.16 1.18 1.20 1.19 1.16 1.16 1.15 1.11 1.10 1.15 1.15 1.15 1.16
1.02 0.92 0.85 0.78 0.84 0.96 1.02 1.14 1.24 1.25 1.28 1.18 1.05 1.09 1.25 1.42 1.48 1.46 1.42 1.46 1.49 1.53 1.54 1.49 1.54 1.51 1.49 1.43 1.42 1.50 1.48 1.46 1.41
1.13 1.07 1.01 1.03 1.00 0.97 1.04 1.17 1.26 1.27 1.32 1.15 1.22 1.39 1.39 1.47 1.53 1.56 1.61 1.65 1.69 1.68 1.70 1.72 1.68 1.63 1.65 1.66 1.65 1.67 1.72 1.74 1.69
1.14 1.17 1.15 1.20 1.19 1.17 1.17 1.24 1.34 1.30 1.33 1.40 1.47 1.47 1.42 1.46 1.53 1.62 1.68 1.69 1.76 1.75 1.72 1.67 1.64 1.66 1.70 1.78 1.84 1.83 1.80 1.80 1.76
1.23 1.30 1.31 1.39 1.33 1.34 1.34 1.38 1.44 1.38 1.50 1.58 1.56 1.54 1.49 1.52 1.52 1.63 1.61 1.66 1.65 1.60 1.62 1.55 1.49 1.45 1.43 1.45 1.58 1.64 1.70 1.74 1.76
1.19 1.29 1.33 1.40 1.38 1.34 1.41 1.54 1.58 1.60 1.68 1.76 1.74 1.64 1.63 1.63 1.58 1.51 1.62 1.65 1.62 1.61 1.55 1.50 1.42 1.36 1.33 1.38 1.44 1.50 1.59 1.61 1.65
1.00 1.18 1.32 1.40 1.39 1.38 1.39 1.50 1.55 1.64 1.68 1.70 1.64 1.67 1.65 1.63 1.60 1.56 1.56 1.58 1.63 1.63 1.71 1.64 1.50 1.47 1.50 1.48 1.43 1.48 1.60 1.61 1.61
0.86 0.93 1.13 1.28 1.40 1.44 1.45 1.48 1.47 1.52 1.54 1.48 1.46 1.44 1.47 1.46 1.44 1.40 1.47 1.48 1.48 1.62 1.63 1.64 1.73 1.74 1.65 1.67 1.67 1.68 1.67 1.69 1.70
0.86 0.85 0.88 1.02 1.19 1.36 1.43 1.42 1.37 1.36 1.30 1.23 1.13 1.11 1.14 1.19 1.21 1.25 1.24 1.22 1.21 1.18 1.35 1.48 1.57 1.65 1.63 1.69 1.68 1.68 1.69 1.71 1.72